When you browse on this site, cookies collect data to enhance your experience and personalize the content and advertising you see.
Visit our Privacy Policy to learn more. By continuing to use the site, you agree to this use of cookies and data.
  • In Spain
  • List of Countries
  • For 7 days
  • Water Temperature
  • Satellite Maps
  • Weather Map
  • Weather Widgets
  • user-avatar
    Login

    Hourly Weather Kropyl'nyky

    Today, 23 May, Thursday

    Time Temperature Precipitation Wind Pressure Humidity
    00:00 +13°C° 0 mm 2 mps 729 mmHg 91%
    01:00 +13°C° 0 mm 2 mps 729 mmHg 92%
    02:00 +12°C° 0 mm 1 mps 730 mmHg 93%
    03:00 +12°C° 0 mm 1 mps 730 mmHg 93%
    04:00 +12°C° 0 mm 1 mps 730 mmHg 94%
    05:00 +11°C° 0 mm 1 mps 730 mmHg 94%
    06:00 +11°C° 0.1 mm 0 mps 730 mmHg 92%
    07:00 +12°C° 0.1 mm 0 mps 730 mmHg 90%
    08:00 +14°C° 0.1 mm 0 mps 731 mmHg 87%
    09:00 +15°C° 0.4 mm 1 mps 731 mmHg 84%
    10:00 +16°C° 0.4 mm 2 mps 731 mmHg 81%
    11:00 +17°C° 0.4 mm 3 mps 731 mmHg 78%
    12:00 +18°C° 0.5 mm 3 mps 731 mmHg 76%
    13:00 +19°C° 0.5 mm 3 mps 731 mmHg 74%
    14:00 +19°C° 0.5 mm 3 mps 731 mmHg 72%
    15:00 +19°C° 0.5 mm 3 mps 731 mmHg 75%
    16:00 +19°C° 0.5 mm 3 mps 731 mmHg 77%
    17:00 +18°C° 0.5 mm 3 mps 731 mmHg 80%
    18:00 +17°C° 0.2 mm 3 mps 731 mmHg 85%
    19:00 +16°C° 0.2 mm 3 mps 731 mmHg 90%
    20:00 +14°C° 0.2 mm 4 mps 731 mmHg 95%
    21:00 +13°C° 0.4 mm 4 mps 731 mmHg 95%
    22:00 +13°C° 0.4 mm 4 mps 732 mmHg 96%
    23:00 +12°C° 0.4 mm 4 mps 732 mmHg 96%

    Tomorrow, 24 May, Friday

    Time Temperature Precipitation Wind Pressure Humidity
    00:00 +12°C° 0.1 mm 4 mps 732 mmHg 96%
    01:00 +12°C° 0.1 mm 4 mps 732 mmHg 96%
    02:00 +12°C° 0.1 mm 4 mps 732 mmHg 96%
    03:00 +12°C° 0 mm 3 mps 732 mmHg 96%
    04:00 +12°C° 0 mm 3 mps 732 mmHg 96%
    05:00 +12°C° 0 mm 3 mps 732 mmHg 96%
    06:00 +13°C° 0.1 mm 3 mps 732 mmHg 96%
    07:00 +13°C° 0.1 mm 3 mps 732 mmHg 95%
    08:00 +14°C° 0.1 mm 3 mps 732 mmHg 95%
    09:00 +14°C° 0.2 mm 3 mps 732 mmHg 94%
    10:00 +14°C° 0.2 mm 3 mps 732 mmHg 93%
    11:00 +16°C° 0.2 mm 3 mps 732 mmHg 93%
    12:00 +15°C° 0.4 mm 4 mps 732 mmHg 92%
    13:00 +15°C° 0.4 mm 4 mps 732 mmHg 91%
    14:00 +15°C° 0.4 mm 5 mps 732 mmHg 90%
    15:00 +15°C° 0.5 mm 5 mps 732 mmHg 90%
    16:00 +15°C° 0.5 mm 5 mps 732 mmHg 89%
    17:00 +15°C° 0.5 mm 5 mps 731 mmHg 89%
    18:00 +15°C° 0.4 mm 4 mps 731 mmHg 91%
    19:00 +14°C° 0.4 mm 3 mps 731 mmHg 93%
    20:00 +15°C° 0.4 mm 2 mps 731 mmHg 94%
    21:00 +14°C° 0.2 mm 2 mps 731 mmHg 95%
    22:00 +14°C° 0.2 mm 2 mps 731 mmHg 96%
    23:00 +13°C° 0.2 mm 3 mps 732 mmHg 96%

    Day after tomorrow, 25 May, Saturday

    Time Temperature Precipitation Wind Pressure Humidity
    00:00 +12°C° 0.1 mm 3 mps 731 mmHg 96%
    01:00 +12°C° 0.1 mm 3 mps 731 mmHg 96%
    02:00 +11°C° 0.1 mm 3 mps 731 mmHg 96%
    03:00 +11°C° 0 mm 3 mps 731 mmHg 97%
    04:00 +11°C° 0 mm 3 mps 731 mmHg 97%
    05:00 +10°C° 0 mm 3 mps 731 mmHg 97%
    06:00 +11°C° 0 mm 3 mps 732 mmHg 95%
    07:00 +13°C° 0 mm 3 mps 732 mmHg 92%
    08:00 +14°C° 0 mm 4 mps 732 mmHg 90%
    09:00 +15°C° 0 mm 4 mps 732 mmHg 84%
    10:00 +18°C° 0 mm 4 mps 732 mmHg 78%
    11:00 +19°C° 0 mm 4 mps 732 mmHg 72%
    12:00 +20°C° 0.3 mm 4 mps 732 mmHg 72%
    13:00 +20°C° 0.3 mm 5 mps 732 mmHg 72%
    14:00 +20°C° 0.3 mm 5 mps 732 mmHg 71%
    15:00 +20°C° 0.1 mm 5 mps 732 mmHg 70%
    16:00 +20°C° 0.1 mm 4 mps 732 mmHg 69%
    17:00 +20°C° 0.1 mm 4 mps 732 mmHg 68%
    18:00 +19°C° 0 mm 3 mps 732 mmHg 73%
    19:00 +17°C° 0 mm 3 mps 732 mmHg 78%
    20:00 +16°C° 0 mm 2 mps 732 mmHg 83%
    21:00 +15°C° 0 mm 2 mps 732 mmHg 85%
    22:00 +14°C° 0 mm 2 mps 732 mmHg 87%
    23:00 +13°C° 0 mm 2 mps 732 mmHg 89%

    26 May, Sunday

    Time Temperature Precipitation Wind Pressure Humidity
    00:00 +13°C° 0 mm 2 mps 732 mmHg 90%
    01:00 +13°C° 0 mm 2 mps 732 mmHg 91%
    02:00 +12°C° 0 mm 2 mps 732 mmHg 91%
    03:00 +12°C° 0 mm 2 mps 732 mmHg 91%
    04:00 +12°C° 0 mm 2 mps 732 mmHg 92%
    05:00 +12°C° 0 mm 1 mps 732 mmHg 92%
    06:00 +14°C° 0.1 mm 1 mps 732 mmHg 87%
    07:00 +15°C° 0.1 mm 1 mps 732 mmHg 83%
    08:00 +18°C° 0.1 mm 1 mps 732 mmHg 78%
    09:00 +18°C° 0.9 mm 2 mps 732 mmHg 79%
    10:00 +18°C° 0.9 mm 3 mps 732 mmHg 79%
    11:00 +19°C° 0.9 mm 4 mps 732 mmHg 80%
    12:00 +19°C° 1.2 mm 5 mps 732 mmHg 80%
    13:00 +20°C° 1.2 mm 5 mps 731 mmHg 79%
    14:00 +20°C° 1.2 mm 5 mps 731 mmHg 78%
    15:00 +19°C° 1.4 mm 5 mps 731 mmHg 81%
    16:00 +18°C° 1.4 mm 4 mps 731 mmHg 84%
    17:00 +17°C° 1.4 mm 4 mps 731 mmHg 87%
    18:00 +15°C° 0 mm 4 mps 731 mmHg 86%
    19:00 +13°C° 0 mm 3 mps 732 mmHg 86%
    20:00 +12°C° 0 mm 3 mps 732 mmHg 86%
    21:00 +12°C° 0 mm 2 mps 732 mmHg 87%
    22:00 +10°C° 0 mm 2 mps 733 mmHg 87%
    23:00 +9°C° 0 mm 2 mps 733 mmHg 88%

    27 May, Monday

    Time Temperature Precipitation Wind Pressure Humidity
    00:00 +9°C° 0 mm 2 mps 733 mmHg 89%
    01:00 +9°C° 0 mm 2 mps 733 mmHg 90%
    02:00 +9°C° 0 mm 2 mps 734 mmHg 92%
    03:00 +8°C° 0 mm 2 mps 734 mmHg 92%
    04:00 +8°C° 0 mm 2 mps 734 mmHg 92%
    05:00 +9°C° 0 mm 1 mps 734 mmHg 92%
    06:00 +11°C° 0 mm 1 mps 734 mmHg 86%
    07:00 +13°C° 0 mm 1 mps 734 mmHg 81%
    08:00 +15°C° 0 mm 1 mps 734 mmHg 75%
    09:00 +16°C° 0 mm 1 mps 734 mmHg 70%
    10:00 +18°C° 0 mm 1 mps 734 mmHg 64%
    11:00 +20°C° 0 mm 1 mps 734 mmHg 59%
    12:00 +19°C° 0 mm 2 mps 734 mmHg 60%
    13:00 +20°C° 0 mm 2 mps 734 mmHg 61%
    14:00 +21°C° 0 mm 3 mps 733 mmHg 62%
    15:00 +21°C° 0 mm 3 mps 733 mmHg 67%
    16:00 +21°C° 0 mm 4 mps 732 mmHg 72%
    17:00 +20°C° 0 mm 4 mps 732 mmHg 77%
    18:00 +20°C° 0 mm 4 mps 732 mmHg 82%
    19:00 +19°C° 0 mm 4 mps 732 mmHg 88%
    20:00 +18°C° 0 mm 4 mps 731 mmHg 93%
    21:00 +18°C° 0 mm 3 mps 731 mmHg 93%
    22:00 +17°C° 0 mm 3 mps 731 mmHg 93%
    23:00 +17°C° 0 mm 3 mps 731 mmHg 93%

    28 May, Tuesday

    Time Temperature Precipitation Wind Pressure Humidity
    00:00 +17°C° 0 mm 2 mps 730 mmHg 93%
    01:00 +16°C° 0 mm 2 mps 730 mmHg 93%
    02:00 +16°C° 0 mm 2 mps 729 mmHg 92%
    03:00 +15°C° 0.1 mm 2 mps 729 mmHg 93%
    04:00 +15°C° 0.1 mm 2 mps 729 mmHg 93%
    05:00 +15°C° 0.1 mm 2 mps 728 mmHg 93%
    06:00 +16°C° 0.1 mm 3 mps 728 mmHg 91%
    07:00 +17°C° 0.1 mm 3 mps 728 mmHg 89%
    08:00 +18°C° 0.1 mm 4 mps 728 mmHg 87%
    09:00 +20°C° 0.2 mm 4 mps 728 mmHg 80%
    10:00 +22°C° 0.2 mm 4 mps 728 mmHg 73%
    11:00 +23°C° 0.2 mm 5 mps 728 mmHg 66%
    12:00 +25°C° 0 mm 5 mps 727 mmHg 65%
    13:00 +25°C° 0 mm 5 mps 727 mmHg 64%
    14:00 +25°C° 0 mm 5 mps 727 mmHg 62%
    15:00 +25°C° 0.6 mm 4 mps 727 mmHg 66%
    16:00 +25°C° 0.6 mm 3 mps 727 mmHg 69%
    17:00 +24°C° 0.6 mm 2 mps 727 mmHg 72%
    18:00 +23°C° 0.9 mm 2 mps 727 mmHg 75%
    19:00 +20°C° 0.9 mm 2 mps 727 mmHg 79%
    20:00 +19°C° 0.9 mm 2 mps 727 mmHg 82%
    21:00 +18°C° 0.1 mm 2 mps 728 mmHg 84%
    22:00 +17°C° 0.1 mm 2 mps 728 mmHg 86%
    23:00 +17°C° 0.1 mm 2 mps 728 mmHg 88%
    Show more